Regional Weather Roundup
Issued by NWS

Home | Current Version | Previous Version | Text Only | Print | Product List | Glossary Off
Versions: 1 2 3 4 5 6 7 8 9 10 11 12 13 14 15 16 17 18 19 20 21 22 23 24 25 26 27 28 29 30 31 32 33 34 35 36 37 38 39 40 41 42 43 44 45 46 47 48 49 50

000
ASUS43 KMPX 231301
RWRMN
WEATHER ROUNDUP FOR MINNESOTA
NATIONAL WEATHER SERVICE TWIN CITIES/CHANHASSEN MN
800 AM CDT SAT MAY 23 2015


NOTE: "FAIR" INDICATES FEW OR NO CLOUDS BELOW 12,000 FEET WITH NO
SIGNIFICANT WEATHER AND/OR OBSTRUCTIONS TO VISIBILITY. N/A MEANS
CURRENT SKY AND/OR WEATHER CONDITIONS ARE NOT AVAILABLE.

MNZ060>063-068>070-231400-
   Twin Cities Metro

CITY           SKY/WX    TMP DP  RH WIND       PRES   REMARKS
TWIN CITIES    PTSUNNY   59  43  55 CALM      30.25S
ST PAUL        PTSUNNY   57  49  74 CALM      30.25F
CRYSTAL        PTSUNNY   62  45  53 NW6       30.23S
BLAINE         PTSUNNY   61  45  55 CALM      30.24S
LAKEVILLE      PTSUNNY   57  45  62 NW6       30.25R
EDEN PRAIRIE   PTSUNNY   54  45  71 SW6       30.25R
SOUTH ST PAUL  PTSUNNY   57  46  67 CALM      30.25S
LAKE ELMO      FAIR      55  45  67 CALM      30.26S
$$
MNZ001>005-007-008-013>017-022>024-027-028-231400-
   Northwest Minnesota

CITY           SKY/WX    TMP DP  RH WIND       PRES   REMARKS
BEMIDJI        SUNNY     56  41  58 SW6       30.19S
HALLOCK        SUNNY     55  45  67 S7        30.14S
ROSEAU         MOSUNNY   63  43  48 SW5       30.15S
WARROAD        MOSUNNY   61  43  51 SW9       30.15S
THIEF RVR FALL SUNNY     57  43  58 S8        30.17S
CROOKSTON      SUNNY     55  45  67 S12       30.17S
FOSSTON        SUNNY     55  45  67 S13       30.20R
DETROIT LAKES  SUNNY     55  45  67 SW7       30.23R
MOORHEAD       MOSUNNY   55  46  71 S6        30.21S
PARK RAPIDS    SUNNY     56  44  64 SW5       30.21S
MAHNOMEN       FAIR      54  45  72 S9        30.20R
$$
MNZ006-009>011-018-025>026-231400-
   North Central Minnesota

CITY           SKY/WX    TMP DP  RH WIND       PRES   REMARKS
BAUDETTE       MOSUNNY   63  38  39 SW9       30.15S
FLAG ISLAND    PTSUNNY   57  43  58 SE3       30.13S
INTL FALLS     MOSUNNY   58  41  53 W5        30.17R
WASKISH        SUNNY     61  45  55 CALM        N/A
BIG FORK       SUNNY     59  46  63 CALM      30.20S
LONGVILLE      SUNNY     54  48  82 CALM      30.21S
GRAND RAPIDS   SUNNY     59  43  55 CALM      30.21F
CRANE LAKE     SUNNY     57  41  54 S5        30.19S
COOK           SUNNY     61  39  44 SW8       30.20S
WALKER         FAIR      56  40  54 CALM      30.20S
$$
MNZ012-019>021-037-231400-
   Northeast Minnesota

CITY           SKY/WX    TMP DP  RH WIND       PRES   REMARKS
DULUTH         SUNNY     63  37  38 W9        30.22S
ELY            SUNNY     61  37  41 W7        30.19S
HIBBING        SUNNY     55  39  54 CALM      30.22R
EVELETH        SUNNY     54  41  62 W3        30.23S
DULUTH HARBOR  SUNNY     57  43  58 SW10      30.22F
TWO HARBORS    SUNNY     64  45  48 W8        30.20S
SILVER BAY     SUNNY     66  37  34 SW7       30.19S
GRAND MARAIS     N/A     43  36  76 W10       30.16S
G MARAIS ARPRT MOSUNNY   57  34  41 W7        30.18S
$$
MNZ029>031-032-039>041-046>048-054>057-064-231400-
   West Central Minnesota

CITY           SKY/WX    TMP DP  RH WIND       PRES   REMARKS
FERGUS FALLS   MOSUNNY   55  45  67 CALM      30.24S
WHEATON        MOSUNNY   54  46  76 SE3       30.24S
MORRIS         PTSUNNY   54  48  82 E3        30.23S
ALEXANDRIA     MOSUNNY   54  45  71 SW3       30.25S
ELBOW LAKE     FAIR      55  46  71 CALM      30.23F
WADENA         SUNNY     55  45  67 W7        30.22S
GLENWOOD       PTSUNNY   54  46  76 W1        30.25F
APPLETON       LGT RAIN  55  48  76 S6        30.24S
BENSON         CLOUDY    55  46  71 CALM      30.24S
ORTONVILLE     DRIZZLE   52  46  82 SE5       30.23S
MADISON        CLOUDY    55  48  76 E5        30.23F
WILLMAR        FAIR      57  48  72 CALM      30.27S
$$
MNZ033>034-036-042>043-049>051-058-059-231400-
   Central Minnesota

CITY           SKY/WX    TMP DP  RH WIND       PRES   REMARKS
ST CLOUD       PTSUNNY   54  49  83 SW3       30.24R
SAUK CENTRE    FAIR      55  47  74 W3        30.25S
PAYNESVILLE    PTSUNNY   54  48  80 SW5       30.26S
AITKIN         SUNNY     59  46  63 S6        30.21S
PINE RIVER     SUNNY     54  45  71 CALM      30.25S
BRAINERD       SUNNY     55  43  63 W8        30.23S
STAPLES        SUNNY     55  45  67 W6        30.23S
LONG PRAIRIE   FAIR      55  45  67 SW7       30.25R
LITTLE FALLS   SUNNY     55  45  67 NW3       30.23S
LITCHFIELD     CLOUDY    57  50  77 CALM      30.26S
BUFFALO        PTSUNNY   56  46  69 CALM      30.26S
MAPLE LAKE     PTSUNNY   59  50  71 CALM      30.25F
$$
MNZ037-044-045-052-053-231400-
   East Central Minnesota

CITY           SKY/WX    TMP DP  RH WIND       PRES   REMARKS
PRINCETON      MOSUNNY   57  46  67 CALM      30.24S
MORA           SUNNY     50  45  81 CALM      30.25S
CAMBRIDGE      SUNNY     59  45  58 CALM      30.22S
RUSH CITY      SUNNY     55  44  65 CALM      30.25R
MOOSE LAKE     SUNNY     52  43  71 CALM      30.22S
HINCKLEY       FAIR      54  46  76 CALM      30.24S
CLOQUET        SUNNY     63  36  36 SW6       30.23S
MCGREGOR       SUNNY     55  45  67 CALM      30.23S
$$
MNZ071>073-080-081-089-090-097-098-231400-
   Southwest Minnesota

CITY           SKY/WX    TMP DP  RH WIND       PRES   REMARKS
MONTEVIDEO     DRIZZLE   55  48  76 S3        30.26S
GRANITE FALLS  DRIZZLE   54  49  82 CALM      30.26S
CANBY          LGT RAIN  54  49  84 CALM      30.24F
MARSHALL       CLOUDY    55  46  71 E5        30.23S
REDWOOD FALLS  CLOUDY    53  49  86 CALM      30.24F
OLIVIA         LGT RAIN  52  45  76 CALM      30.25S
PIPESTONE      CLOUDY    55  48  76 SE7       30.22S
WINDOM         LGT RAIN  57  48  72 CALM      30.25R
WORTHINGTON    CLOUDY    55  46  71 SE6       30.24S
JACKSON        CLOUDY    55  52  88 SE7       30.25S
TRACY          DRIZZLE   56  50  82 CALM      30.24S
SLAYTON        LGT RAIN  54  50  87 CALM      30.25S
$$
MNZ065>067-074>077-082>085-091>093-231400-
   South Central Minnesota

CITY           SKY/WX    TMP DP  RH WIND       PRES   REMARKS
MANKATO        CLOUDY    55  48  76 E5        30.26F
NEW ULM        CLOUDY    55  46  71 N6        30.24F
ST JAMES       PTSUNNY   57  52  82 NE5       30.25S
FAIRMONT       CLOUDY    55  46  71 SE6       30.25R
GLENCOE        CLOUDY    58  48  71 CALM      30.26S
FARIBAULT      CLOUDY    59  46  63 W3        30.26R
OWATONNA       CLOUDY    59  45  58 W14       30.28R
WASECA         LGT RAIN  54  46  76 CALM      30.29R
ALBERT LEA     CLOUDY    59  45  58 CALM      30.27R
$$
MNZ078>079-086>088-094>096-231400-
   Southeast Minnesota

CITY           SKY/WX    TMP DP  RH WIND       PRES   REMARKS
ROCHESTER      PTSUNNY   60  45  57 NW7       30.27S
RED WING       MOSUNNY   55  48  76 E3        30.25R
STANTON        PTSUNNY   60  44  56 CALM      30.25R
DODGE CENTER   CLOUDY    61  45  55 N8        30.26R
WINONA         MOSUNNY   54  48  82 SE3       30.27F
AUSTIN         CLOUDY    57  48  72 CALM      30.26S
PRESTON        PTSUNNY   56  46  68 CALM      30.28S
$$
ABBREVIATIONS USED IN REMARKS
   TC - TEMPERATURES IN CELSIUS
  WCI - WIND CHILL INDEX
   HX - HEAT INDEX
  VSB - VISIBILITY
$$



USA.gov is the U.S. government's official web portal to all federal, state and local government web resources and services.